Starlink 32175

operational
NORAD ID: 60339 Int'l Des: 2024-136 Owner: SPXS Country: US Constellation: starlink
LEOCIRCULAR

Starlink 32175について

説明を読み込み中...

リアルタイム位置

3D地球を読み込み中...

次回通過

高度履歴

Altitude vs Time

uPlot chart will show altitude changes over time

軌道要素

1 60339U 24136L 25306.32270378 .00000312 00000-0 22659-4 0 9999
2 60339 53.1613 307.3066 0001346 95.3486 264.7668 15.30186278 70160
Epoch: Nov 2, 2025 • Age: 39 hours

現在のステータス

高度 484.6 km
速度 7.62 km/s
衛星直下点 -29.39°S, 126.53°E
打ち上げ日 Aug 2, 2024
運用期間 1.2 years
タイプ internet

技術仕様

分類 Payload
質量 730.00 kg
乾燥質量 700.00 kg
総質量 730.00 kg
長さ 0.30 m
直径 4.10 m
スパン 29.00 m
形状 Box + pan
製造者 SPXS
バスタイプ Starlink V2M
フェーズステータス In Orbit
所有者/国 SPXS/US

大規模コンステレーション

Loading constellations...